Weather in Pleasanton

United States     37°40′36″N   121°49′32″W
temp.,
°C
wind,
m/s
gust,
m/s
humid.,
%
clouds,
%
prec.,
mm/h
press.,
hPa
HPBL,
m
7 may, fri
fri723:00+10sw510830 0.0 1018335
02:00+8sw488918 0.0 1017302
05:00+8sw48925 0.0 1017277
08:00+10wsw34720 0.0 1018360
11:00+18wsw33430 0.0 1017887
14:00+24w44290 0.0 10151638
17:00+20wsw65360 0.0 1015686
20:00+13sw45530 0.0 1015108
8 may, sat
sat823:00+10sw33660 0.0 101647
02:00+10wsw22670 0.0 101624
05:00+10sw22540 0.0 101613
08:00+16n38240 0.0 1017562
11:00+23nnw68105 0.0 10161133
14:00+29nnw78891 0.0 10141822
17:00+29nw69100 0.0 10122234
20:00+16sw44400 0.0 101366
9 may, sun
sun923:00+13sw33510 0.0 101360
02:00+11sw33645 0.0 101344
05:00+10sw32745 0.0 101334
08:00+15w23485 0.0 1013225
11:00+23nnw462397 0.0 10121280
14:00+28nw461551 0.0 10092319
17:00+23wsw66285 0.0 1009738
20:00+15sw34505 0.0 100981
10 may, mon
mon1023:00+13sw33600 0.0 100945
02:00+11sw32680 0.0 100927
05:00+12ssw22590 0.0 101012
08:00+18n36330 0.0 1011485
11:00+25nnw67170 0.0 10111361
14:00+29nnw7880 0.0 10092065
17:00+30nnw7970 0.0 10082186
20:00+17sw33350 0.0 101042
11 may, tue
tue1123:00+14sw33400 0.0 101131
02:00+13sw22440 0.0 101118
05:00+13sw11414 0.0 101211
08:00+19n13243 0.0 1013265
11:00+26n45141 0.0 10131099
14:00+31nnw3495 0.0 10112067
17:00+28wsw76150 0.0 1011923
20:00+19sw45320 0.0 101289